| time (UTC) | temp F | wind direction | speed MPH | gust MPH | rain 1hr in | rain 24hr in | rain mn in | humidity % | barometer mb |
| 20260831214410 | 95 | 174 | 4.0 | 8.0 | 0.00 | 0.00 | 0.00 | 44 | 1015.5 |
| 20260831213326 | 94 | 169 | 3.0 | 6.0 | 0.00 | 0.00 | 0.00 | 46 | 1015.8 |
| 20260831211353 | 93 | 150 | 4.0 | 9.0 | 0.00 | 0.00 | 0.00 | 47 | 1015.9 |
| 20260831210418 | 93 | 151 | 0.0 | 8.0 | 0.00 | 0.00 | 0.00 | 48 | 1016.0 |
| 20260831205339 | 94 | 144 | 5.0 | 10.0 | 0.00 | 0.00 | 0.00 | 47 | 1016.2 |
| 20260831204400 | 93 | 61 | 4.0 | 8.0 | 0.00 | 0.00 | 0.00 | 48 | 1016.3 |
| 20260831203323 | 93 | 186 | 4.0 | 8.0 | 0.00 | 0.00 | 0.00 | 47 | 1016.7 |
| 20260831201348 | 95 | 198 | 3.0 | 9.0 | 0.00 | 0.00 | 0.00 | 46 | 1016.8 |
| 20260831200407 | 94 | 111 | 5.0 | 11.0 | 0.00 | 0.00 | 0.00 | 47 | 1017.1 |
| 20260831195330 | 94 | 144 | 1.0 | 11.0 | 0.00 | 0.00 | 0.00 | 48 | 1017.3 |
| 20260831194356 | 94 | 210 | 3.0 | 9.0 | 0.00 | 0.00 | 0.00 | 47 | 1017.4 |
| 20260831193324 | 93 | 184 | 4.0 | 10.0 | 0.00 | 0.00 | 0.00 | 48 | 1017.6 |
| 20260831191348 | 93 | 69 | 5.0 | 8.0 | 0.00 | 0.00 | 0.00 | 51 | 1018.0 |
| 20260831190350 | 93 | 146 | 4.0 | 9.0 | 0.00 | 0.00 | 0.00 | 51 | 1018.1 |
| 20260831185324 | 92 | 181 | 6.0 | 11.0 | 0.00 | 0.00 | 0.00 | 50 | 1018.1 |
| 20260831182335 | 92 | 90 | 4.0 | 12.0 | 0.00 | 0.00 | 0.00 | 54 | 1018.3 |
| 20260831181350 | 91 | 182 | 3.0 | 8.0 | 0.00 | 0.00 | 0.00 | 52 | 1018.5 |
| 20260831180405 | 92 | 136 | 4.0 | 10.0 | 0.00 | 0.00 | 0.00 | 53 | 1018.5 |
| 20260831175424 | 92 | 163 | 3.0 | 8.0 | 0.00 | 0.00 | 0.00 | 54 | 1018.6 |
| 20260831174340 | 90 | 119 | 5.0 | 9.0 | 0.00 | 0.00 | 0.00 | 56 | 1018.7 |
| 20260831173359 | 90 | 222 | 4.0 | 8.0 | 0.00 | 0.00 | 0.00 | 56 | 1018.7 |
| 20260831172414 | 90 | 117 | 4.0 | 8.0 | 0.00 | 0.00 | 0.00 | 58 | 1018.8 |
| 20260831171329 | 89 | 209 | 3.0 | 6.0 | 0.00 | 0.00 | 0.00 | 59 | 1018.8 |
| 20260831170342 | 90 | 160 | 6.0 | 9.0 | 0.00 | 0.00 | 0.00 | 57 | 1019.0 |
| 20260831165337 | 89 | 207 | 2.0 | 8.0 | 0.00 | 0.00 | 0.00 | 61 | 1019.1 |
| 20260831164407 | 89 | 175 | 3.0 | 9.0 | 0.00 | 0.00 | 0.00 | 62 | 1019.2 |
| 20260831163413 | 88 | 99 | 5.0 | 9.0 | 0.00 | 0.00 | 0.00 | 63 | 1019.2 |
| 20260831162324 | 88 | 148 | 4.0 | 8.0 | 0.00 | 0.00 | 0.00 | 65 | 1019.3 |
| 20260831161337 | 87 | 127 | 5.0 | 10.0 | 0.00 | 0.00 | 0.00 | 65 | 1019.4 |
| 20260831160336 | 87 | 111 | 4.0 | 11.0 | 0.00 | 0.00 | 0.00 | 68 | 1019.2 |
| 20260831155404 | 86 | 100 | 4.0 | 10.0 | 0.00 | 0.00 | 0.00 | 70 | 1019.2 |
| 20260831154410 | 86 | 212 | 4.0 | 8.0 | 0.00 | 0.00 | 0.00 | 72 | 1019.1 |
| 20260831153406 | 85 | 169 | 3.0 | 9.0 | 0.00 | 0.00 | 0.00 | 73 | 1018.9 |
| 20260831152421 | 85 | 165 | 5.0 | 8.0 | 0.00 | 0.00 | 0.00 | 74 | 1018.9 |
| 20260831150331 | 83 | 166 | 5.0 | 9.0 | 0.00 | 0.00 | 0.00 | 77 | 1018.8 |
| 20260831145359 | 82 | 252 | 3.0 | 7.0 | 0.00 | 0.00 | 0.00 | 82 | 1018.7 |
| 20260831144324 | 82 | 202 | 2.0 | 6.0 | 0.00 | 0.00 | 0.00 | 83 | 1018.9 |
| 20260831142352 | 80 | 190 | 3.0 | 9.0 | 0.00 | 0.00 | 0.00 | 85 | 1018.8 |
| 20260831141359 | 80 | 189 | 2.0 | 8.0 | 0.00 | 0.00 | 0.00 | 86 | 1018.9 |
| 20260831140329 | 80 | 253 | 4.0 | 5.0 | 0.00 | 0.00 | 0.00 | 88 | 1018.8 |
| 20260831135354 | 79 | 207 | 3.0 | 7.0 | 0.00 | 0.00 | 0.00 | 89 | 1018.6 |
| 20260831134323 | 78 | 169 | 3.0 | 5.0 | 0.00 | 0.00 | 0.00 | 91 | 1018.6 |
| 20260831133344 | 77 | 211 | 0.0 | 1.0 | 0.00 | 0.00 | 0.00 | 93 | 1018.6 |
| 20260831132413 | 77 | 211 | 0.0 | 1.0 | 0.00 | 0.00 | 0.00 | 93 | 1018.6 |
| 20260831131458 | 76 | 211 | 0.0 | 1.0 | 0.00 | 0.00 | 0.00 | 93 | 1018.5 |
| 20260831130331 | 75 | 211 | 0.0 | 0.0 | 0.00 | 0.00 | 0.00 | 94 | 1018.4 |
| 20260831125334 | 74 | 211 | 0.0 | 0.0 | 0.00 | 0.00 | 0.00 | 94 | 1018.5 |
| 20260831124408 | 74 | 211 | 0.0 | 0.0 | 0.00 | 0.00 | 0.00 | 93 | 1018.3 |
| 20260831123327 | 74 | 211 | 0.0 | 0.0 | 0.00 | 0.00 | 0.00 | 92 | 1018.2 |
| 20260831122356 | 74 | 211 | 0.0 | 0.0 | 0.00 | 0.00 | 0.00 | 92 | 1018.0 |
| 20260831121422 | 74 | 211 | 0.0 | 0.0 | 0.00 | 0.00 | 0.00 | 92 | 1017.7 |
| 20260831115350 | 74 | 211 | 0.0 | 0.0 | 0.00 | 0.00 | 0.00 | 91 | 1017.6 |
| 20260831114326 | 74 | 211 | 0.0 | 0.0 | 0.00 | 0.00 | 0.00 | 91 | 1017.6 |
| 20260831113400 | 75 | 211 | 0.0 | 0.0 | 0.00 | 0.00 | 0.00 | 90 | 1017.6 |
| 20260831112422 | 75 | 211 | 0.0 | 0.0 | 0.00 | 0.00 | 0.00 | 90 | 1017.6 |
| 20260831105356 | 76 | 211 | 0.0 | 0.0 | 0.00 | 0.00 | 0.00 | 90 | 1017.7 |
| 20260831104420 | 76 | 211 | 0.0 | 0.0 | 0.00 | 0.00 | 0.00 | 89 | 1017.9 |
| 20260831103325 | 77 | 211 | 0.0 | 0.0 | 0.00 | 0.00 | 0.00 | 89 | 1017.8 |
| 20260831101355 | 77 | 211 | 0.0 | 1.0 | 0.00 | 0.00 | 0.00 | 89 | 1018.0 |
| 20260831100328 | 77 | 211 | 0.0 | 4.0 | 0.00 | 0.00 | 0.00 | 89 | 1018.0 |
| 20260831095405 | 77 | 200 | 1.0 | 3.0 | 0.00 | 0.00 | 0.00 | 89 | 1018.0 |
| 20260831093346 | 77 | 168 | 1.0 | 7.0 | 0.00 | 0.00 | 0.00 | 89 | 1017.7 |
| 20260831092419 | 77 | 180 | 0.0 | 3.0 | 0.00 | 0.00 | 0.00 | 89 | 1017.8 |
| 20260831091342 | 76 | 180 | 0.0 | 4.0 | 0.00 | 0.00 | 0.00 | 89 | 1017.8 |
| 20260831090413 | 76 | 180 | 0.0 | 1.0 | 0.00 | 0.00 | 0.00 | 89 | 1017.9 |
| 20260831084351 | 76 | 180 | 0.0 | 2.0 | 0.00 | 0.00 | 0.00 | 87 | 1017.8 |
| 20260831083421 | 76 | 180 | 0.0 | 0.0 | 0.00 | 0.00 | 0.00 | 86 | 1017.8 |
| 20260831080347 | 77 | 180 | 0.0 | 0.0 | 0.00 | 0.00 | 0.00 | 84 | 1018.0 |
| 20260831075417 | 78 | 180 | 0.0 | 0.0 | 0.00 | 0.00 | 0.00 | 83 | 1018.0 |
| 20260831074341 | 78 | 180 | 0.0 | 2.0 | 0.00 | 0.00 | 0.00 | 83 | 1018.0 |
| 20260831073409 | 78 | 180 | 1.0 | 6.0 | 0.00 | 0.00 | 0.00 | 82 | 1017.9 |
| 20260831072330 | 78 | 163 | 2.0 | 9.0 | 0.00 | 0.00 | 0.00 | 82 | 1017.7 |
| 20260831071340 | 79 | 178 | 4.0 | 7.0 | 0.00 | 0.00 | 0.00 | 81 | 1017.7 |
| 20260831070342 | 79 | 148 | 3.0 | 6.0 | 0.00 | 0.00 | 0.00 | 80 | 1017.8 |
| 20260831065328 | 79 | 115 | 3.0 | 8.0 | 0.00 | 0.00 | 0.00 | 79 | 1017.9 |
| 20260831064332 | 79 | 178 | 5.0 | 10.0 | 0.00 | 0.00 | 0.00 | 79 | 1018.1 |
| 20260831063344 | 80 | 175 | 3.0 | 7.0 | 0.00 | 0.00 | 0.00 | 78 | 1018.0 |
| 20260831062326 | 80 | 163 | 4.0 | 8.0 | 0.00 | 0.00 | 0.00 | 77 | 1018.0 |
| 20260831061325 | 80 | 151 | 4.0 | 10.0 | 0.00 | 0.00 | 0.00 | 76 | 1017.8 |
| 20260831060338 | 80 | 153 | 4.0 | 7.0 | 0.00 | 0.00 | 0.00 | 76 | 1017.7 |
| 20260831055323 | 81 | 140 | 4.0 | 9.0 | 0.00 | 0.00 | 0.00 | 74 | 1017.8 |
| 20260831054328 | 81 | 148 | 4.0 | 11.0 | 0.00 | 0.00 | 0.00 | 73 | 1017.5 |
| 20260831053342 | 81 | 132 | 5.0 | 10.0 | 0.00 | 0.00 | 0.00 | 72 | 1017.5 |
| 20260831052325 | 82 | 151 | 6.0 | 11.0 | 0.00 | 0.00 | 0.00 | 72 | 1017.5 |
| 20260831051330 | 82 | 136 | 5.0 | 10.0 | 0.00 | 0.00 | 0.00 | 70 | 1017.6 |
| 20260831050343 | 82 | 137 | 4.0 | 10.0 | 0.00 | 0.00 | 0.00 | 70 | 1017.5 |
| 20260831045339 | 82 | 165 | 4.0 | 8.0 | 0.00 | 0.00 | 0.00 | 69 | 1017.4 |
| 20260831044415 | 83 | 187 | 5.0 | 10.0 | 0.00 | 0.00 | 0.00 | 68 | 1017.4 |
| 20260831043343 | 83 | 160 | 4.0 | 10.0 | 0.00 | 0.00 | 0.00 | 67 | 1017.3 |
| 20260831042403 | 84 | 196 | 6.0 | 10.0 | 0.00 | 0.00 | 0.00 | 66 | 1017.2 |
| 20260831041334 | 84 | 172 | 6.0 | 11.0 | 0.00 | 0.00 | 0.00 | 65 | 1017.2 |
| 20260831040401 | 85 | 146 | 5.0 | 14.0 | 0.00 | 0.00 | 0.00 | 65 | 1017.2 |
| 20260831035329 | 85 | 184 | 6.0 | 12.0 | 0.00 | 0.00 | 0.00 | 64 | 1017.0 |
| 20260831034341 | 85 | 170 | 5.0 | 9.0 | 0.00 | 0.00 | 0.00 | 63 | 1017.0 |
| 20260831033415 | 86 | 163 | 5.0 | 13.0 | 0.00 | 0.00 | 0.00 | 63 | 1016.9 |
| 20260831031330 | 86 | 140 | 4.0 | 10.0 | 0.00 | 0.00 | 0.00 | 62 | 1016.8 |
| 20260831030352 | 86 | 190 | 6.0 | 13.0 | 0.00 | 0.00 | 0.00 | 61 | 1016.6 |
| 20260831025421 | 87 | 183 | 5.0 | 11.0 | 0.00 | 0.00 | 0.00 | 62 | 1016.5 |
| 20260831024452 | 87 | 171 | 3.0 | 9.0 | 0.00 | 0.00 | 0.00 | 62 | 1016.2 |
| 20260831023358 | 87 | 196 | 4.0 | 7.0 | 0.00 | 0.00 | 0.00 | 62 | 1016.0 |
| 20260831022334 | 87 | 180 | 3.0 | 7.0 | 0.00 | 0.00 | 0.00 | 61 | 1015.8 |
| 20260831021353 | 87 | 177 | 4.0 | 8.0 | 0.00 | 0.00 | 0.00 | 60 | 1015.6 |
| 20260831020414 | 88 | 148 | 4.0 | 9.0 | 0.00 | 0.00 | 0.00 | 60 | 1015.4 |
| 20260831015418 | 88 | 161 | 4.0 | 11.0 | 0.00 | 0.00 | 0.00 | 59 | 1015.3 |
| 20260831012338 | 89 | 178 | 4.0 | 11.0 | 0.00 | 0.00 | 0.00 | 55 | 1015.2 |
| 20260831011353 | 90 | 144 | 2.0 | 6.0 | 0.00 | 0.00 | 0.00 | 53 | 1015.0 |
| 20260831010419 | 91 | 140 | 0.0 | 1.0 | 0.00 | 0.00 | 0.00 | 53 | 1014.9 |
| 20260831005348 | 91 | 140 | 0.0 | 3.0 | 0.00 | 0.00 | 0.00 | 50 | 1014.7 |
| 20260831004421 | 92 | 140 | 2.0 | 4.0 | 0.00 | 0.00 | 0.00 | 49 | 1014.6 |
| 20260831002341 | 93 | 155 | 0.0 | 3.0 | 0.00 | 0.00 | 0.00 | 47 | 1014.5 |
| 20260831001416 | 94 | 143 | 1.0 | 6.0 | 0.00 | 0.00 | 0.00 | 47 | 1014.7 |
| 20260831000355 | 94 | 149 | 1.0 | 6.0 | 0.00 | 0.00 | 0.00 | 46 | 1014.7 |
| 20260830235412 | 94 | 119 | 3.0 | 9.0 | 0.00 | 0.00 | 0.00 | 46 | 1014.6 |
| 20260830234334 | 95 | 126 | 5.0 | 9.0 | 0.00 | 0.00 | 0.00 | 44 | 1014.7 |
| 20260830233409 | 96 | 150 | 2.0 | 7.0 | 0.00 | 0.00 | 0.00 | 43 | 1014.6 |
| 20260830232324 | 96 | 106 | 2.0 | 6.0 | 0.00 | 0.00 | 0.00 | 44 | 1014.6 |
| 20260830231355 | 95 | 151 | 1.0 | 11.0 | 0.00 | 0.00 | 0.00 | 45 | 1014.6 |
| 20260830230419 | 95 | 205 | 2.0 | 8.0 | 0.00 | 0.00 | 0.00 | 44 | 1014.7 |
| 20260830225342 | 96 | 184 | 5.0 | 9.0 | 0.00 | 0.00 | 0.00 | 44 | 1014.8 |
| 20260830224403 | 96 | 159 | 3.0 | 7.0 | 0.00 | 0.00 | 0.00 | 45 | 1014.8 |
| 20260830223325 | 95 | 147 | 3.0 | 9.0 | 0.00 | 0.00 | 0.00 | 45 | 1014.9 |
| 20260830222352 | 95 | 200 | 6.0 | 11.0 | 0.00 | 0.00 | 0.00 | 44 | 1014.9 |
| 20260830221422 | 95 | 167 | 4.0 | 10.0 | 0.00 | 0.00 | 0.00 | 45 | 1015.0 |
| 20260830220346 | 95 | 200 | 3.0 | 10.0 | 0.00 | 0.00 | 0.00 | 45 | 1015.1 |
| 20260830215405 | 94 | 117 | 5.0 | 10.0 | 0.00 | 0.00 | 0.00 | 45 | 1015.1 |